Flag for Germany Weather past 2 weeks in Ahrensburg, Schleswig-Holstein, Germany

Now
73 °F

Passing clouds.


Feels Like: 77 °F
Forecast: 61 / 81 °F
Wind: 10 mph from South

Location: Hamburg-Fuhlsbuettel

Current Time: Aug 1, 2014 at 10:20:51 AM

Latest Report: Aug 1, 2014 at 9:50 AM


Visibility: N/A

Pressure: 29.92 "Hg

Humidity: 50%

Dew point: 54 °F

Location of AhrensburgLocation

Historic Weather in Ahrensburg — Graph

°F

Ahrensburg temperature yesterday

Maximum temperature yesterday: 73 °F (at 12:50 PM)
Minimum temperature yesterday: 59 °F (at 2:50 AM)
Average temperature yesterday: 67 °F

Past Weeks' High & Low Weather Summary

 TemperatureHumidityPressure
High88 °F (Jul 19, 2:20 PM)100% (Jul 22, 2:20 AM)30.18 "Hg (Jul 22, 2:20 AM)
Low59 °F (Jul 28, 5:20 AM)29% (Jul 19, 6:20 PM)29.74 "Hg (Jul 30, 2:20 AM)
Average72 °F69%29.96 "Hg
* Reported Jul 17 9:20 AM — Aug 1 9:20 AM, Ahrensburg, Weather by CustomWeather, © 2014

Note: Actual official high and low records may vary slightly from our data, if they occured in-between our weather recording intervals... More about our weather records

Advertising

Ahrensburg weather history for previous 24 hours

 ConditionsComfort  
Time TempWeatherWind HumidityBarometerVisibility
9:20 AM
Aug 1
72 °FSunny.10 mph57%29.92 "Hg10 mi
8:50 AM70 °FSunny.8 mph60%29.92 "Hg10 mi
8:20 AM68 °FSunny.8 mph64%29.92 "Hg10 mi
7:50 AM66 °FSunny.6 mph73%29.92 "Hg10 mi
7:20 AM64 °FPassing clouds.7 mph78%29.92 "HgN/A
6:50 AM63 °FSunny.7 mph77%29.92 "Hg10 mi
6:20 AM61 °FPassing clouds.8 mph83%29.92 "HgN/A
5:50 AM61 °FClear.7 mph83%29.92 "Hg10 mi
5:20 AM61 °FClear.7 mph83%29.92 "Hg10 mi
4:50 AM61 °FClear.7 mph83%29.92 "Hg10 mi
4:20 AM61 °FClear.7 mph83%29.92 "Hg10 mi
3:50 AM63 °FClear.7 mph83%29.92 "Hg10 mi
3:20 AM63 °FClear.6 mph83%29.92 "Hg10 mi
2:50 AM63 °FClear.8 mph83%29.92 "Hg10 mi
2:20 AM64 °FClear.7 mph78%29.92 "Hg10 mi
1:50 AM64 °FClear.6 mph78%29.92 "Hg10 mi
1:20 AM66 °FClear.6 mph73%29.92 "Hg10 mi
12:50 AM64 °FClear.6 mph78%29.92 "Hg10 mi
12:20 AM64 °FClear.6 mph78%29.92 "Hg10 mi
11:50 PM
Jul 31
66 °FClear.6 mph73%29.95 "Hg10 mi
11:20 PM68 °FClear.6 mph69%29.92 "Hg10 mi
10:50 PM66 °FPassing clouds.3 mph73%29.92 "HgN/A
10:20 PM66 °FClear.1 mph78%29.92 "Hg10 mi
9:50 PM68 °FSunny.No wind78%29.92 "Hg10 mi
9:20 PM68 °FSunny.1 mph73%29.92 "Hg10 mi
8:50 PM68 °FSunny.2 mph73%29.92 "Hg10 mi
8:20 PM70 °FPartly sunny.3 mph64%29.92 "HgN/A
7:50 PM72 °FScattered clouds.5 mph61%29.92 "HgN/A
7:20 PM72 °FScattered clouds.7 mph57%29.92 "HgN/A
6:50 PM73 °FScattered clouds.6 mph53%29.92 "HgN/A
6:20 PM73 °FPassing clouds.5 mph53%29.92 "HgN/A
5:50 PM73 °FPassing clouds.6 mph57%29.92 "HgN/A
5:20 PM73 °FPassing clouds.7 mph50%29.92 "HgN/A
4:50 PM73 °FScattered clouds.9 mph50%29.95 "HgN/A
4:20 PM73 °FPassing clouds.12 mph50%29.95 "HgN/A
3:50 PM72 °FPassing clouds.12 mph57%29.95 "HgN/A
3:20 PM73 °FPassing clouds.12 mph57%29.95 "HgN/A
2:50 PM72 °FScattered clouds.14 mph61%29.95 "HgN/A
2:20 PM72 °FScattered showers. Scattered clouds.13 mph57%29.95 "HgN/A
1:50 PM73 °FScattered clouds.10 mph53%29.92 "HgN/A
1:20 PM73 °FScattered clouds.14 mph53%29.95 "HgN/A
12:50 PM73 °FScattered clouds.13 mph53%29.95 "HgN/A
12:20 PM72 °FScattered clouds.13 mph57%29.95 "HgN/A
11:50 AM70 °FPartly sunny.12 mph60%29.95 "HgN/A
11:20 AM70 °FPartly sunny.12 mph60%29.95 "HgN/A
10:50 AM68 °FScattered clouds.13 mph69%29.95 "HgN/A
10:20 AM68 °FPassing clouds.9 mph69%29.95 "HgN/A
Weather by CustomWeather, © 2014

See weather overviewHow to use our weather pages